Weather History for Kinston, NC

Change the Weather History Date:

Sunday, December 15, 2013

  Actual Average Record
Temperature  
Mean Temperature 46 °F -  
Max Temperature 55 °F 54 °F 77 °F (1971)
Min Temperature 34 °F 36 °F 17 °F (2010)
Degree Days  
Heating Degree Days 19    
Moisture  
Dew Point 43 °F    
Average Humidity 90    
Maximum Humidity 100    
Minimum Humidity 70    
Precipitation  
Precipitation 0.01 in - - ()
Sea Level Pressure  
Sea Level Pressure 29.88 in    
Wind  
Wind Speed 4 mph (West)    
Max Wind Speed 12 mph    
Max Gust Speed -    
Visibility 7 miles    
Events Rain    
Averages and records for this station are not official NWS values.
T = Trace of Precipitation, MM = Missing Value Source: NWS Daily Summary

Daily Weather History Graph

Daily Weather History Graph

Search for Another Location

Airport:

Trip Planner

Search our weather history database for the weather conditions in past years. The results will help you decide how hot, cold, wet, or windy it might be!

Date:

Astronomy

Dec. 15, 2013 Rise Set
Actual Time 7:12 AM EST 4:59 PM EST
Civil Twilight 6:43 AM EST 5:27 PM EST
Nautical Twilight 6:11 AM EST 5:59 PM EST
Astronomical Twilight 5:41 AM EST 6:30 PM EST
Moon 3:59 PM EST (12/15) 5:29 AM EST (12/15)
Length of Visible Light 10h 43m
Length of Day
9h 47m
Waxing Gibbous, 97% of the Moon is Illuminated
Dec 15
Waxing Gibbous
Dec 17
Full
Dec 25
Last Quarter
Jan 1
New
Jan 7
First Quarter

Hourly Weather History & Observations

Time (EST) Temp. Windchill Dew Point Humidity Pressure Visibility Wind Dir Wind Speed Gust Speed Precip Events Conditions
12:15 AM 58.8 °F - 58.1 °F 97% 29.76 in 7.0 mi West 4.6 mph - N/A Rain Rain
12:35 AM 57.6 °F - 57.2 °F 99% 29.76 in 4.0 mi WNW 3.5 mph - N/A Rain Light Rain
12:55 AM 55.8 °F - 55.4 °F 99% 29.75 in 2.5 mi West 4.6 mph - N/A   Overcast
1:15 AM 54.9 °F - 54.5 °F 99% 29.76 in 4.0 mi WSW 3.5 mph - N/A   Overcast
1:35 AM 54.0 °F - 53.6 °F 99% 29.75 in 1.5 mi West 4.6 mph - N/A   Overcast
1:55 AM 53.6 °F - 53.1 °F 98% 29.74 in 2.0 mi SW 3.5 mph - N/A   Overcast
2:15 AM 53.1 °F - 52.7 °F 99% 29.73 in 1.8 mi West 3.5 mph - N/A   Overcast
2:35 AM 52.3 °F - 52.0 °F 99% 29.74 in 3.0 mi West 3.5 mph - N/A   Overcast
2:55 AM 51.3 °F - 50.9 °F 99% 29.76 in 3.0 mi NW 11.5 mph - N/A Rain Light Rain
3:15 AM 48.4 °F - 48.2 °F 99% 29.74 in 3.0 mi WNW 5.8 mph - N/A Rain Light Rain
3:35 AM 48.2 °F - 47.7 °F 98% 29.73 in 3.0 mi NW 4.6 mph - N/A   Overcast
3:55 AM 47.3 °F - 47.1 °F 99% 29.75 in 2.5 mi WNW 5.8 mph - N/A   Overcast
4:15 AM 47.3 °F - 46.9 °F 99% 29.77 in 2.5 mi West 5.8 mph - N/A Rain Light Rain
4:35 AM 46.8 °F - 46.6 °F 99% 29.77 in 2.5 mi West 4.6 mph - N/A Rain Light Rain
4:55 AM 46.8 °F - 46.6 °F 99% 29.75 in 2.0 mi West 3.5 mph - N/A Rain Light Rain
5:15 AM 46.9 °F - 46.8 °F 99% 29.75 in 2.0 mi SW 3.5 mph - N/A   Overcast
5:35 AM 47.5 °F - 47.3 °F 99% 29.73 in 2.5 mi Calm Calm - N/A   Overcast
5:55 AM 47.8 °F - 47.7 °F 99% 29.74 in 3.0 mi SSW 5.8 mph - 0.01 in Rain Light Rain
6:56 AM 48.2 °F - 48.2 °F 100% 29.78 in 3.0 mi SW 3.5 mph - N/A Rain Light Rain
7:56 AM 48.2 °F - 48.2 °F 100% 29.80 in 3.0 mi WSW 3.5 mph - N/A   Overcast
8:56 AM 48.2 °F - 48.2 °F 100% 29.83 in 5.0 mi West 5.8 mph - N/A   Overcast
9:56 AM 48.2 °F - 46.4 °F 93% 29.85 in 7.0 mi West 4.6 mph - N/A   Overcast
10:56 AM 48.2 °F - 46.4 °F 93% 29.86 in 7.0 mi West 5.8 mph - N/A   Overcast
11:56 AM 50.0 °F - 46.4 °F 87% 29.85 in 10.0 mi WNW 6.9 mph - N/A   Scattered Clouds
12:56 PM 51.8 °F - 44.6 °F 76% 29.84 in 10.0 mi West 8.1 mph - N/A   Mostly Cloudy
1:56 PM 51.8 °F - 42.8 °F 71% 29.86 in 10.0 mi WNW 4.6 mph - N/A   Scattered Clouds
2:56 PM 51.8 °F - 42.8 °F 71% 29.88 in 10.0 mi West 6.9 mph - N/A   Mostly Cloudy
3:56 PM 51.8 °F - 42.8 °F 71% 29.89 in 10.0 mi WNW 5.8 mph - N/A   Scattered Clouds
4:56 PM 48.2 °F - 42.8 °F 82% 29.92 in 10.0 mi Calm Calm - N/A   Clear
5:56 PM 41.0 °F - 39.2 °F 93% 29.95 in 10.0 mi Calm Calm - N/A   Clear
6:56 PM 41.0 °F - 39.2 °F 93% 29.97 in 10.0 mi Calm Calm - N/A   Clear
7:56 PM 44.6 °F 43.1 °F 37.4 °F 76% 30.01 in 10.0 mi WNW 3.5 mph - N/A   Clear
8:15 PM 43.3 °F - 36.5 °F 77% 30.01 in 10.0 mi Calm Calm - N/A   Clear
8:35 PM 43.2 °F - 35.4 °F 74% 30.03 in 10.0 mi Calm Calm - N/A   Clear
8:55 PM 41.9 °F - 34.7 °F 76% 30.03 in 10.0 mi Calm Calm - N/A   Clear
8:56 PM 42.8 °F - 33.8 °F 70% 30.03 in 10.0 mi Calm Calm - N/A   Clear
9:15 PM 39.4 °F - 35.1 °F 84% 30.04 in 10.0 mi Calm Calm - N/A   Clear
9:35 PM 38.7 °F - 35.1 °F 87% 30.04 in 10.0 mi Calm Calm - N/A   Clear
9:55 PM 36.1 °F - 33.4 °F 90% 30.06 in 10.0 mi Calm Calm - N/A   Clear
9:56 PM 35.6 °F - 33.8 °F 93% 30.06 in 10.0 mi Calm Calm - N/A   Clear
10:15 PM 34.5 °F - 33.1 °F 94% 30.07 in 10.0 mi Calm Calm - N/A   Clear
10:35 PM 34.0 °F - 32.5 °F 94% 30.07 in 10.0 mi Calm Calm - N/A   Clear
10:55 PM 39.0 °F - 33.3 °F 80% 30.07 in 10.0 mi Calm Calm - N/A   Clear
11:15 PM 38.7 °F - 32.4 °F 78% 30.08 in 10.0 mi Calm Calm - N/A   Clear
11:35 PM 38.5 °F - 32.0 °F 78% 30.08 in 10.0 mi Calm Calm - N/A   Clear
11:55 PM 38.7 °F - 32.0 °F 77% 30.09 in 10.0 mi Calm Calm - N/A   Clear